Вернуться в каталог

THORAD AGENA D DEB

АктивенPO
NORAD 4754·DEBRIS·🇺🇸 United States

Запущен Apr 8, 1970 с Vandenberg Space Force Base

Loading…

Ближайшие Пролёты (ближайшие 24 часа)

TLE

СвежийSource: Space-Track

Эпоха: Sep 13, 2026, 20:35 UTC

1 04754U 70025DC  26256.85781203  .00004235  00000-0  14320-2 0  9995
2 04754  99.5907 230.4229 0016504  24.2111 335.9844 14.37401266846547

Отслеживайте THORAD AGENA D DEB в реальном времени с AllMySat

Download on the App Store